Regional Weather Roundup
Issued by NWS

Home | Current Version | Previous Version | Text Only | Print | Product List | Glossary On
Versions: 1 2 3 4 5 6 7 8 9 10 11 12 13 14 15 16 17 18 19 20 21 22 23 24 25 26 27 28 29 30 31 32 33 34 35 36 37 38 39 40 41 42 43 44 45 46 47 48 49 50
000
ASUS43 KOAX 300102
RWRNE

WEATHER ROUNDUP FOR NEBRASKA
NATIONAL WEATHER SERVICE OMAHA NE
800 PM CDT FRI AUG 29 2014

NOTES: SATELLITE DATA IS BEING USED TO AUGMENT CLOUD COVER ABOVE
       12000 FEET.
       "FAIR" INDICATES FEW OR NO CLOUDS BELOW 12,000 FEET WITH NO
       SIGNIFICANT WEATHER AND/OR OBSTRUCTIONS TO VISIBILITY.

  * THESE STATIONS DO NOT REPORT WEATHER SUCH AS RAIN...SNOW OR FOG.

NEZ001>004-019>022-054>056-300200-
NEBRASKA PANHANDLE

CITY           SKY/WX    TMP DP  RH WIND       PRES   REMARKS
SCOTTSBLUFF    PTCLDY    75  59  57 E6        30.01R
ALLIANCE       CLEAR     71  54  54 NE9       30.01S
CHADRON        CLEAR     72  54  53 E10       29.99S
KIMBALL        PTCLDY    71  52  50 E6        30.05R
SIDNEY         PTCLDY    73  51  46 NE10      30.04R
$$

NEZ057>060-069>072-079>082-300200-
SOUTHWEST NEBRASKA

CITY           SKY/WX    TMP DP  RH WIND       PRES   REMARKS
NORTH PLATTE   PTCLDY    72  61  68 N6        29.92R
IMPERIAL       PTCLDY    75  59  57 NW6       29.95R
LEXINGTON      PTCLDY    74  65  74 N3        29.88R
MCCOOK         CLEAR     80  58  46 CALM      29.90R
OGALLALA       CLEAR     73  57  57 N12G17    29.97R
$$

NEZ005>010-023>029-035>040-094-300200-
NORTH CENTRAL NEBRASKA

CITY           SKY/WX    TMP DP  RH WIND       PRES   REMARKS
VALENTINE      CLEAR     73  57  57 N10       29.94R
AINSWORTH      MOCLDY    70  61  74 NW5       29.92S
BROKEN BOW     PTCLDY    72  64  76 NE5       29.88R
O`NEILL        LGT RAIN  69  62  79 W7        29.86S
ORD            PTCLDY    73  64  73 N5        29.86R
THEDFORD       PTCLDY    74  58  58 N9        29.95R
$$

NEZ041-046>049-061>064-073>077-083>087-300200-
SOUTH CENTRAL NEBRASKA

CITY           SKY/WX    TMP DP  RH WIND       PRES   REMARKS
GRAND ISLAND   PTCLDY    75  67  76 NW3       29.85R
AURORA         PTCLDY    71  67  88 NW3       29.84R
HASTINGS       CLEAR     75  64  68 NW3       29.85R
HEBRON         PTCLDY    76  66  71 CALM      29.82R
HOLDREGE       CLEAR     76  63  62 CALM      29.88R
KEARNEY *      CLEAR     77  64  65 NW5       29.87R
$$

NEZ011>018-030>034-042>045-300200-
NORTHEAST NEBRASKA

CITY           SKY/WX    TMP DP  RH WIND       PRES   REMARKS
NORFOLK        MOCLDY    73  66  78 NW7       29.82R
ALBION         PTCLDY    71  64  78 N5        29.84R
BLAIR          CLOUDY    71  66  86 W3        29.80R
FREMONT        CLOUDY    72  66  83 CALM      29.81R
TEKAMAH        CLOUDY    69  67  93 CALM      29.79R
WAYNE          LGT RAIN  69  67  92 CALM      29.80R
$$

NEZ050>053-065>068-078-088>093-300200-
SOUTHEAST NEBRASKA

CITY           SKY/WX    TMP DP  RH WIND       PRES   REMARKS
LINCOLN        CLOUDY    72  67  84 NE3       29.82R
OMAHA EPPLEY   CLOUDY    72  68  87 S3        29.79R
BEATRICE       PTCLDY    74  69  85 CALM      29.80S
FALLS CITY     MOCLDY    76  71  85 N5        29.78
NEBRASKA CITY  MOCLDY    70  68  93 W5        29.81R
PLATTSMOUTH    CLOUDY    71  67  87 SW3       29.81R
$$

NEZ044-045-051>053-067-300200-
OMAHA AREA

CITY           SKY/WX    TMP DP  RH WIND       PRES   REMARKS
OMAHA EPPLEY   CLOUDY    72  68  87 S3        29.79R
BLAIR          CLOUDY    71  66  86 W3        29.80R
FREMONT        CLOUDY    72  66  83 CALM      29.81R
MILLARD        CLOUDY    72  67  83 CALM      29.79R
OFFUTT AFB     CLOUDY    72  71  99 W1        29.79R
PLATTSMOUTH    CLOUDY    71  67  87 SW3       29.81R
WAHOO          FAIR      70  65  85 W3        29.81R
$$



USA.gov is the U.S. government's official web portal to all federal, state and local government web resources and services.